GW0068 Weather Reports


Display with metric or nautical units.
time (UTC)temp
F
wind
direction
speed
MPH
gust
MPH
rain 1hr
in
rain 24hr
in
rain mn
in
humidity
%
barometer
mb
20260503004023 83 0 0.0 3.0 0.00 0.00 0.00 84 1013.8
20260503003519 83 0 0.0 3.0 0.00 0.00 0.00 84 1013.6
20260503003044 83 193 0.0 3.0 0.00 0.00 0.00 84 1013.5
20260503002519 83 5 0.0 3.0 0.00 0.00 0.00 84 1013.6
20260503002020 83 167 0.0 4.0 0.00 0.00 0.00 84 1013.5
20260503001541 83 90 0.0 4.0 0.00 0.00 0.00 83 1013.4
20260503001019 83 244 0.0 3.0 0.00 0.00 0.00 83 1013.5
20260503000523 83 91 0.0 3.0 0.00 0.00 0.00 83 1013.3
20260503000044 83 0 0.0 2.0 0.00 0.00 0.00 83 1013.3
20260502235519 84 0 0.0 2.0 0.00 0.00 0.00 82 1013.3
20260502235020 84 128 0.0 3.0 0.00 0.00 0.00 82 1013.2
20260502234549 84 176 0.0 5.0 0.00 0.00 0.00 82 1013.3
20260502234020 84 189 0.0 5.0 0.00 0.00 0.00 81 1013.3
20260502233520 84 0 1.0 4.0 0.00 0.00 0.00 81 1013.2
20260502233041 84 0 1.0 5.0 0.00 0.00 0.00 81 1013.1
20260502232524 84 186 1.0 5.0 0.00 0.00 0.00 80 1013.1
20260502232018 85 109 0.0 4.0 0.00 0.00 0.00 80 1013.0
20260502231538 85 225 0.0 5.0 0.00 0.00 0.00 80 1012.9
20260502231021 85 124 1.0 6.0 0.00 0.00 0.00 80 1012.8
20260502230519 85 236 1.0 7.0 0.00 0.00 0.00 80 1012.8
20260502230039 85 207 1.0 7.0 0.00 0.00 0.00 80 1012.6
20260502225520 85 165 2.0 7.0 0.00 0.00 0.00 80 1012.7
20260502225019 86 188 2.0 8.0 0.00 0.00 0.00 80 1012.5
20260502224542 86 192 2.0 8.0 0.00 0.00 0.00 80 1012.5
20260502224020 86 199 1.0 5.0 0.00 0.00 0.00 80 1012.4
20260502223521 86 177 2.0 9.0 0.00 0.00 0.00 80 1012.3
20260502223045 86 212 2.0 9.0 0.00 0.00 0.00 79 1012.4
20260502222521 86 165 2.0 9.0 0.00 0.00 0.00 79 1012.3
20260502222019 86 156 2.0 7.0 0.00 0.00 0.00 79 1012.1
20260502221539 87 261 1.0 7.0 0.00 0.00 0.00 79 1012.1
20260502221019 87 204 3.0 7.0 0.00 0.00 0.00 78 1012.1
20260502220518 87 197 2.0 7.0 0.00 0.00 0.00 78 1012.1
20260502220038 87 228 2.0 7.0 0.00 0.00 0.00 79 1012.2
20260502215519 87 158 2.0 7.0 0.00 0.00 0.00 78 1012.1
20260502215020 87 240 2.0 6.0 0.00 0.00 0.00 78 1012.1
20260502214544 87 184 1.0 6.0 0.00 0.00 0.00 78 1012.1
20260502214020 87 140 1.0 6.0 0.00 0.00 0.00 77 1011.9
20260502213522 88 200 2.0 6.0 0.00 0.00 0.00 77 1012.0
20260502213039 88 163 1.0 6.0 0.00 0.00 0.00 77 1011.9
20260502212523 88 200 1.0 7.0 0.00 0.00 0.00 76 1011.9
20260502212021 88 164 2.0 9.0 0.00 0.00 0.00 76 1011.8
20260502211538 88 87 3.0 10.0 0.00 0.00 0.00 76 1011.9
20260502211024 88 188 3.0 10.0 0.00 0.00 0.00 77 1012.0
20260502210522 88 179 3.0 8.0 0.00 0.00 0.00 78 1012.0
20260502210049 88 0 1.0 7.0 0.00 0.00 0.00 78 1011.9
20260502205522 88 41 2.0 7.0 0.00 0.00 0.00 76 1011.9
20260502205025 88 120 1.0 6.0 0.00 0.00 0.00 76 1011.8
20260502204548 89 15 1.0 6.0 0.00 0.00 0.00 75 1011.8
20260502204022 88 60 1.0 7.0 0.00 0.00 0.00 77 1011.8
20260502203526 88 63 2.0 7.0 0.00 0.00 0.00 76 1011.8
20260502203046 88 173 2.0 5.0 0.00 0.00 0.00 75 1011.8
20260502202522 90 123 1.0 10.0 0.00 0.00 0.00 76 1011.7
20260502202021 88 74 2.0 10.0 0.00 0.00 0.00 76 1011.6
20260502201538 88 110 2.0 8.0 0.00 0.00 0.00 76 1011.6
20260502201023 88 321 2.0 8.0 0.00 0.00 0.00 76 1011.5
20260502200526 88 109 1.0 7.0 0.00 0.00 0.00 76 1011.6
20260502200039 88 323 2.0 7.0 0.00 0.00 0.00 74 1011.6
20260502195523 90 188 1.0 7.0 0.00 0.00 0.00 74 1011.6
20260502195022 89 222 1.0 10.0 0.00 0.00 0.00 77 1011.6
20260502194538 89 254 2.0 10.0 0.00 0.00 0.00 74 1011.7
20260502194023 89 20 2.0 6.0 0.00 0.00 0.00 75 1011.6
20260502193522 88 115 1.0 6.0 0.00 0.00 0.00 76 1011.6
20260502193040 88 339 2.0 7.0 0.00 0.00 0.00 76 1011.6
20260502192523 89 218 2.0 7.0 0.00 0.00 0.00 75 1011.7
20260502192022 88 49 2.0 7.0 0.00 0.00 0.00 76 1011.7
20260502191542 88 276 1.0 6.0 0.00 0.00 0.00 77 1011.8
20260502191028 88 212 1.0 9.0 0.00 0.00 0.00 77 1012.0
20260502190522 89 0 2.0 9.0 0.00 0.00 0.00 76 1011.9
20260502190043 89 257 2.0 9.0 0.00 0.00 0.00 76 1012.1
20260502185522 90 155 2.0 9.0 0.00 0.00 0.00 74 1012.2
20260502185021 90 142 1.0 9.0 0.00 0.00 0.00 75 1012.3
20260502184540 90 47 3.0 9.0 0.00 0.00 0.00 74 1012.3
20260502184022 89 269 2.0 7.0 0.00 0.00 0.00 77 1012.5
20260502183522 90 34 2.0 7.0 0.00 0.00 0.00 73 1012.5
20260502183035 90 215 1.0 7.0 0.00 0.00 0.00 73 1012.6
20260502182538 90 209 2.0 9.0 0.00 0.00 0.00 76 1012.7
20260502182022 89 137 2.0 9.0 0.00 0.00 0.00 75 1012.6
20260502181545 89 101 3.0 8.0 0.00 0.00 0.00 75 1012.8
20260502181022 89 180 1.0 7.0 0.00 0.00 0.00 75 1012.9
20260502180524 88 281 1.0 8.0 0.00 0.00 0.00 75 1012.8
20260502164022 89 131 3.0 7.0 0.00 0.00 0.00 77 1013.6
20260502163522 88 0 1.0 7.0 0.00 0.00 0.00 79 1013.6
20260502163048 88 251 1.0 6.0 0.00 0.00 0.00 80 1013.6
20260502162522 87 80 1.0 7.0 0.00 0.00 0.00 78 1013.7
20260502162023 88 5 1.0 7.0 0.00 0.00 0.00 77 1013.5
20260502161538 88 55 3.0 7.0 0.00 0.00 0.00 78 1013.6
20260502161021 88 94 2.0 6.0 0.00 0.00 0.00 78 1013.5
20260502160525 88 163 0.0 6.0 0.00 0.00 0.00 79 1013.6
20260502152021 87 0 1.0 5.0 0.00 0.00 0.00 79 1013.9
20260502151552 87 67 1.0 5.0 0.00 0.00 0.00 80 1014.0
20260502151021 87 128 1.0 6.0 0.00 0.00 0.00 81 1013.9
20260502150521 86 0 1.0 6.0 0.00 0.00 0.00 80 1014.1
20260502130521 84 0 2.0 9.0 0.00 0.00 0.00 84 1013.5
20260502123522 82 157 1.0 7.0 0.00 0.00 0.00 86 1013.4
20260502123048 82 0 1.0 8.0 0.00 0.00 0.00 86 1013.3
20260502122525 82 104 2.0 8.0 0.00 0.00 0.00 87 1013.3
20260502122025 82 63 1.0 8.0 0.00 0.00 0.00 88 1013.3
20260502121538 82 0 1.0 8.0 0.00 0.00 0.00 89 1013.3
20260502121019 81 51 1.0 8.0 0.00 0.00 0.00 89 1013.2
20260502120524 81 0 0.0 6.0 0.00 0.00 0.00 90 1013.1
20260502115523 80 0 0.0 6.0 0.00 0.00 0.00 92 1013.0
20260502115021 80 124 0.0 2.0 0.00 0.00 0.00 92 1013.0
20260502114541 79 0 0.0 3.0 0.00 0.00 0.00 93 1012.9
20260502114022 79 61 0.0 4.0 0.00 0.00 0.00 93 1012.9
20260502113522 78 0 1.0 4.0 0.00 0.00 0.00 93 1012.9
20260502113039 78 0 0.0 1.0 0.00 0.00 0.00 94 1012.8
20260502112521 78 0 0.0 1.0 0.00 0.00 0.00 94 1012.8
20260502112019 77 73 0.0 1.0 0.00 0.00 0.00 94 1012.8
20260502111540 77 0 0.0 1.0 0.00 0.00 0.00 94 1012.7
20260502111019 77 73 0.0 0.0 0.00 0.00 0.00 94 1012.7
20260502110519 77 0 0.0 0.0 0.00 0.00 0.00 94 1012.7
20260502110039 77 0 0.0 0.0 0.00 0.00 0.00 94 1012.6
20260502105524 77 0 0.0 0.0 0.00 0.00 0.00 94 1012.6
20260502105020 77 0 0.0 0.0 0.00 0.00 0.00 94 1012.6
20260502104538 76 0 0.0 0.0 0.00 0.00 0.00 94 1012.6
20260502104019 76 0 0.0 0.0 0.00 0.00 0.00 94 1012.5
20260502103523 76 0 0.0 0.0 0.00 0.00 0.00 94 1012.5
20260502103038 76 0 0.0 0.0 0.00 0.00 0.00 94 1012.5
20260502102524 76 0 0.0 0.0 0.00 0.00 0.00 94 1012.4
20260502102022 76 0 0.0 0.0 0.00 0.00 0.00 94 1012.3
20260502101548 76 0 0.0 0.0 0.00 0.00 0.00 94 1012.3
20260502101019 76 0 0.0 0.0 0.00 0.00 0.00 94 1012.3
20260502100519 76 0 0.0 0.0 0.00 0.00 0.00 94 1012.2
20260502091534 76 0 0.0 0.0 0.00 0.00 0.00 92 1011.9
20260502091020 76 0 0.0 0.0 0.00 0.00 0.00 92 1011.9
20260502090517 76 0 0.0 0.0 0.00 0.00 0.00 92 1011.9
20260502071019 80 0 0.0 2.0 0.00 0.00 0.00 89 1012.2
20260502070521 80 0 0.0 1.0 0.00 0.00 0.00 88 1012.2
20260502070045 80 0 0.0 2.0 0.00 0.00 0.00 88 1012.3
20260502065519 80 0 0.0 2.0 0.00 0.00 0.00 88 1012.3
20260502065021 80 0 0.0 1.0 0.00 0.00 0.00 88 1012.3
20260502064534 80 0 0.0 1.0 0.00 0.00 0.00 88 1012.2
20260502064025 80 0 0.0 1.0 0.00 0.00 0.00 88 1012.2
20260502063523 80 0 0.0 1.0 0.00 0.00 0.00 88 1012.3
20260502063041 80 0 0.0 2.0 0.00 0.00 0.00 88 1012.4
20260502062522 80 0 0.0 2.0 0.00 0.00 0.00 88 1012.4
20260502062017 80 0 0.0 3.0 0.00 0.00 0.00 88 1012.4
20260502061541 80 0 0.0 3.0 0.00 0.00 0.00 87 1012.5
20260502061020 80 55 1.0 3.0 0.00 0.00 0.00 87 1012.5
20260502060519 80 55 0.0 3.0 0.00 0.00 0.00 87 1012.4
20260502060038 80 0 0.0 2.0 0.00 0.00 0.00 87 1012.5
20260502055519 80 0 0.0 2.0 0.00 0.00 0.00 87 1012.6
20260502055020 80 0 0.0 2.0 0.00 0.00 0.00 87 1012.7
20260502054539 80 85 0.0 2.0 0.00 0.00 0.00 87 1012.8
20260502054023 80 0 0.0 2.0 0.00 0.00 0.00 87 1012.9
20260502053520 81 0 0.0 6.0 0.00 0.00 0.00 87 1012.8
20260502053037 80 0 0.0 6.0 0.00 0.00 0.00 87 1012.8
20260502052522 81 89 1.0 6.0 0.00 0.00 0.00 87 1013.0
20260502052018 81 0 0.0 2.0 0.00 0.00 0.00 87 1013.0
20260502051533 81 74 0.0 6.0 0.00 0.00 0.00 87 1013.1
20260502051023 81 58 0.0 6.0 0.00 0.00 0.00 87 1013.1
20260502050526 81 57 0.0 3.0 0.00 0.00 0.00 86 1013.1
20260502050039 81 69 1.0 4.0 0.00 0.00 0.00 86 1013.4
20260502045519 81 0 0.0 4.0 0.00 0.00 0.00 86 1013.3
20260502045020 81 0 1.0 4.0 0.00 0.00 0.00 86 1013.4
20260502044538 81 81 0.0 5.0 0.00 0.00 0.00 86 1013.4
20260502044018 81 98 0.0 5.0 0.00 0.00 0.00 86 1013.5
20260502043519 81 0 0.0 5.0 0.00 0.00 0.00 86 1013.5
20260502043039 81 74 0.0 3.0 0.00 0.00 0.00 86 1013.6
20260502042521 81 0 0.0 2.0 0.00 0.00 0.00 86 1013.6
20260502042022 81 62 0.0 2.0 0.00 0.00 0.00 86 1013.5
20260502041539 81 64 0.0 2.0 0.00 0.00 0.00 86 1013.5
20260502041019 81 0 0.0 2.0 0.00 0.00 0.00 86 1013.6
20260502040523 81 57 0.0 2.0 0.00 0.00 0.00 86 1013.6
20260502040039 81 67 0.0 3.0 0.00 0.00 0.00 86 1013.6
20260502035518 81 40 0.0 3.0 0.00 0.00 0.00 86 1013.6
20260502035023 81 25 0.0 4.0 0.00 0.00 0.00 85 1013.7
20260502034534 81 88 0.0 4.0 0.00 0.00 0.00 86 1013.6
20260502034018 81 0 0.0 3.0 0.00 0.00 0.00 85 1013.5
20260502033519 81 88 0.0 4.0 0.00 0.00 0.00 86 1013.5
20260502033041 81 193 0.0 4.0 0.00 0.00 0.00 86 1013.5
20260502032520 81 0 0.0 4.0 0.00 0.00 0.00 86 1013.5
20260502032025 81 0 0.0 2.0 0.00 0.00 0.00 86 1013.4
20260502031540 81 0 0.0 3.0 0.00 0.00 0.00 86 1013.4
20260502031020 81 360 0.0 3.0 0.00 0.00 0.00 86 1013.3
20260502030518 81 74 0.0 3.0 0.00 0.00 0.00 85 1013.4
20260502030039 81 0 0.0 3.0 0.00 0.00 0.00 85 1013.3
20260502025518 81 0 0.0 3.0 0.00 0.00 0.00 85 1013.2
20260502025019 81 66 0.0 3.0 0.00 0.00 0.00 85 1013.1
20260502024534 81 0 0.0 3.0 0.00 0.00 0.00 85 1013.2
20260502024020 81 49 0.0 4.0 0.00 0.00 0.00 85 1013.0
20260502023521 81 0 0.0 4.0 0.00 0.00 0.00 85 1013.1
20260502023040 81 0 1.0 3.0 0.00 0.00 0.00 85 1012.9
20260502022520 81 120 0.0 5.0 0.00 0.00 0.00 85 1012.9
20260502022018 81 76 1.0 5.0 0.00 0.00 0.00 84 1012.8
20260502021541 81 80 0.0 4.0 0.00 0.00 0.00 84 1012.7
20260502021023 81 0 1.0 4.0 0.00 0.00 0.00 84 1012.7
20260502020521 81 0 0.0 3.0 0.00 0.00 0.00 84 1012.5
20260502020040 81 70 0.0 3.0 0.00 0.00 0.00 84 1012.6
20260502015518 81 0 0.0 4.0 0.00 0.00 0.00 83 1012.4
20260502015021 81 0 1.0 4.0 0.00 0.00 0.00 83 1012.4
20260502014539 81 0 0.0 2.0 0.00 0.00 0.00 83 1012.3
20260502014020 81 86 0.0 4.0 0.00 0.00 0.00 83 1012.5
20260502013521 81 0 0.0 4.0 0.00 0.00 0.00 83 1012.4
20260502013040 81 72 0.0 3.0 0.00 0.00 0.00 82 1012.4
20260502012521 81 69 0.0 3.0 0.00 0.00 0.00 82 1012.4
20260502012021 81 0 0.0 3.0 0.00 0.00 0.00 82 1012.3
20260502011534 81 101 0.0 3.0 0.00 0.00 0.00 82 1012.2
20260502011020 81 63 0.0 3.0 0.00 0.00 0.00 82 1012.1
20260502010522 81 0 0.0 3.0 0.00 0.00 0.00 82 1012.1
20260502010041 81 0 0.0 2.0 0.00 0.00 0.00 82 1012.0
20260502005521 81 0 0.0 9.0 0.00 0.00 0.00 82 1012.0
20260502005024 81 55 1.0 9.0 0.00 0.00 0.00 82 1011.9
20260502004540 81 55 1.0 4.0 0.00 0.00 0.00 82 1011.8